Theta_e
320 319 319 319 319 319 319 319 319 320 320 321 321 321 321 323 321 320 309 313 319 331 331 321 318 314 315 311 311 310 300 298 301 302 303 309 306 311 313 309 311 312 312 314 318
319 318 318 318 318 318 319 319 319 320 320 321 321 321 322 322 320 310 314 328 331 334 321 314 310 312 310 309 310 306 301 302 306 306 304 306 306 307 307 307 308 310 314 316 316
318 318 317 318 318 318 318 319 319 319 320 320 320 320 321 322 316 309 326 327 330 329 321 317 316 312 308 310 309 308 301 305 306 308 307 305 305 308 305 303 307 307 310 314 315
318 317 317 318 318 317 317 318 319 319 319 319 319 320 322 320 303 314 329 329 332 324 320 315 314 309 307 306 309 303 307 307 307 308 307 305 308 306 307 307 311 311 312 312 313
317 316 316 317 317 317 317 317 319 319 318 318 319 321 321 313 311 318 331 328 321 319 315 313 310 309 304 305 308 305 307 308 309 308 307 308 306 306 307 310 312 313 313 312 312
316 315 316 317 318 318 318 318 318 318 318 318 320 321 317 308 318 321 320 319 319 316 314 314 311 311 307 307 305 307 307 306 307 308 309 306 307 307 308 311 311 311 311 312 311
315 314 315 316 317 318 318 318 317 317 318 320 321 323 317 310 319 321 321 319 319 317 313 315 314 310 310 305 310 308 303 306 307 308 307 309 303 304 309 311 309 310 311 312 314
314 314 315 316 317 318 318 318 317 320 321 322 323 321 311 318 320 319 319 317 319 319 317 317 316 311 308 310 308 304 304 299 305 304 305 304 297 304 308 308 307 309 310 312 313
314 314 315 316 317 318 317 317 319 322 322 323 321 321 310 319 314 316 318 313 314 315 316 316 313 309 309 303 300 302 295 296 298 304 303 302 298 304 307 307 307 309 309 310 312
315 314 314 315 316 317 316 316 320 320 323 321 319 312 314 309 313 315 318 315 312 312 311 311 309 305 304 301 293 294 294 296 296 301 302 300 299 303 306 306 307 308 310 310 311
315 314 314 315 316 316 316 319 313 312 316 310 312 309 310 313 316 314 315 312 313 309 303 307 302 298 301 302 301 298 297 295 299 302 300 299 299 301 305 305 305 306 308 309 311
314 314 315 315 315 315 315 317 315 316 308 316 313 312 313 313 307 311 315 307 306 301 305 303 299 303 304 302 300 299 297 296 299 301 299 298 298 302 304 305 306 307 308 309 311
313 313 314 314 314 315 319 316 321 320 308 312 314 310 311 311 307 309 311 308 304 301 302 299 301 304 302 300 298 298 296 295 295 298 299 297 295 299 302 305 307 309 311 311 312
312 312 313 312 314 321 318 321 322 321 304 307 307 310 310 310 307 314 314 308 304 301 302 301 304 302 301 299 300 295 300 298 296 294 290 298 287 297 301 302 305 307 308 311 311
312 312 312 311 320 316 317 323 321 320 296 306 306 314 310 307 308 309 313 309 302 302 303 299 301 300 299 299 302 297 301 298 298 295 294 294 291 295 300 299 303 306 308 310 311
311 312 312 321 323 322 321 322 321 305 295 301 306 305 304 306 306 310 309 311 310 304 305 303 307 303 302 303 302 302 299 298 297 294 288 292 292 291 295 298 303 306 309 310 311
311 311 311 322 318 323 321 317 304 299 304 300 301 304 302 302 304 305 304 303 301 297 297 300 300 304 305 300 302 299 295 288 285 286 285 294 289 292 300 302 304 305 306 308 310
309 308 317 322 324 322 318 309 298 302 300 304 303 302 300 303 303 303 303 300 304 302 296 293 291 299 303 299 295 296 295 288 280 282 286 293 287 294 303 304 306 307 305 310 310
307 324 323 326 322 321 311 302 299 301 303 301 301 299 299 302 302 302 301 300 302 302 295 293 292 301 301 301 300 296 293 295 285 291 287 290 294 298 302 302 304 305 306 307 311
314 321 321 320 320 317 310 302 302 305 304 303 297 300 296 299 299 300 299 303 301 304 304 298 291 298 299 301 301 298 300 290 292 282 279 286 288 289 296 298 303 303 304 306 310
317 315 319 321 322 315 305 303 304 306 304 302 300 299 300 299 300 298 299 303 305 303 304 301 296 294 298 295 293 295 293 295 294 291 283 283 287 298 299 301 302 304 305 307 309
318 307 319 318 310 311 303 304 302 305 307 304 304 302 300 301 299 298 298 301 306 304 298 301 296 289 291 298 301 297 294 295 288 286 290 288 287 300 301 303 304 304 304 306 307
313 311 320 317 303 303 305 304 306 304 303 303 302 304 304 300 295 300 300 306 306 302 300 300 293 285 288 295 299 294 296 295 294 294 288 284 287 302 303 302 303 302 303 305 306
313 305 309 310 312 305 302 302 302 307 304 305 304 304 302 300 302 298 299 303 305 304 308 304 296 290 285 290 294 292 293 295 294 288 288 289 291 295 298 298 300 302 303 303 305
310 305 309 300 302 305 305 304 301 301 305 305 302 301 300 296 297 297 299 300 302 306 303 300 291 293 294 295 295 293 294 294 292 294 289 291 291 295 298 298 300 302 303 303 303
304 303 305 303 306 304 303 302 301 301 300 299 299 301 301 297 298 295 298 299 297 301 300 301 292 294 291 295 295 293 295 295 295 294 293 293 291 298 298 296 295 296 298 299 300
309 308 305 302 304 302 301 301 300 302 302 303 301 300 299 300 303 303 304 304 303 300 299 298 296 293 287 294 293 289 292 294 294 295 294 288 294 296 293 295 295 296 298 298 299
Wind_Speed
17 16 14 12 11 10 10 10 11 12 13 15 16 15 15 15 18 7 9 6 8 15 13 16 15 3 11 4 4 7 7 11 12 14 14 20 20 8 7 8 12 13 14 18 21
18 17 14 13 11 11 10 10 11 12 12 15 16 15 15 16 11 11 1 6 13 14 18 7 9 10 9 5 4 5 10 16 13 13 15 18 17 17 16 16 15 16 18 18 18
19 17 15 13 12 11 11 11 11 12 12 14 16 14 14 14 9 7 3 6 13 16 19 13 6 8 10 2 3 8 11 18 14 11 14 17 18 16 18 18 18 18 18 17 17
19 18 16 14 13 12 11 11 12 13 13 13 14 15 15 7 3 8 5 7 14 16 18 10 10 11 9 4 8 9 12 13 10 12 14 16 18 19 19 20 19 19 19 20 19
19 18 16 16 14 13 12 12 13 14 14 12 11 12 9 5 11 10 7 12 14 17 9 11 12 10 12 16 11 15 16 11 14 17 16 18 20 20 19 20 18 18 18 19 18
19 19 17 16 14 13 13 12 12 13 12 10 9 11 7 3 3 9 9 8 13 8 10 11 8 11 14 16 15 17 16 17 20 22 21 20 17 17 19 20 22 21 19 18 19
20 19 18 17 15 14 13 12 12 13 12 9 7 7 10 9 3 5 9 8 7 9 10 13 13 14 17 19 15 19 21 22 22 22 16 9 18 21 23 22 17 19 15 16 20
21 20 18 18 16 14 13 11 11 11 11 10 7 9 1 3 7 7 7 11 9 7 9 10 11 13 12 17 20 23 23 19 16 25 20 23 23 25 23 23 24 23 19 18 17
21 19 19 20 17 15 13 11 11 10 10 10 7 10 3 5 5 6 7 7 12 10 12 10 8 13 15 17 16 18 18 25 25 21 23 21 26 23 24 23 22 20 20 20 19
22 21 20 19 17 15 13 7 7 10 9 10 12 10 5 4 5 8 9 9 14 9 16 17 12 16 15 14 13 21 22 22 24 24 24 25 26 25 23 24 23 21 20 20 21
23 23 21 20 16 13 12 5 7 8 12 14 5 5 2 2 8 10 2 8 11 13 16 10 12 14 18 11 15 19 21 24 25 24 23 24 24 25 25 25 25 23 22 22 21
24 23 23 21 20 10 7 7 8 8 11 17 11 6 5 3 10 6 4 10 12 16 16 14 14 16 21 14 17 21 24 24 24 23 23 25 28 27 27 27 22 21 22 22 23
24 23 22 22 20 9 8 8 8 8 8 12 10 10 6 3 12 11 3 11 13 15 15 16 20 19 9 16 19 22 21 21 26 25 26 26 29 24 28 27 16 16 20 18 19
25 24 21 24 5 6 1 8 9 5 7 11 8 4 4 10 14 5 7 5 11 16 17 15 12 21 22 21 19 21 19 22 23 24 21 22 24 23 19 21 11 17 17 22 17
25 24 21 5 11 6 9 7 11 3 6 6 9 7 6 10 13 4 6 8 16 20 18 19 19 21 18 22 14 17 20 24 29 27 26 26 15 16 22 16 15 12 13 9 12
25 22 20 4 8 8 10 7 5 7 1 3 3 8 11 14 16 4 11 9 15 18 15 21 18 20 22 13 11 20 22 25 22 19 15 25 4 8 10 9 28 13 15 8 4
26 21 9 9 8 11 10 8 8 8 2 6 13 16 19 22 11 10 11 13 14 15 17 20 19 19 17 20 17 24 23 11 11 8 14 15 5 11 13 24 29 24 11 14 14
29 21 9 9 9 9 8 9 10 10 15 16 15 20 21 8 5 11 14 16 15 10 14 15 19 12 25 23 25 24 17 10 11 12 20 18 11 7 10 12 22 25 28 16 8
29 7 9 6 6 5 7 8 6 12 14 13 17 16 13 15 19 19 16 14 6 7 7 13 12 26 24 22 19 19 12 5 10 19 14 15 19 8 11 4 10 15 25 26 20
8 8 5 3 4 4 7 13 6 9 10 11 16 11 20 21 18 17 16 10 6 5 6 10 23 14 18 22 18 18 6 5 7 6 7 13 19 8 7 17 9 5 9 17 15
5 6 6 5 3 6 9 9 12 16 8 7 13 17 17 19 17 18 13 17 10 7 10 15 2 15 23 18 22 15 12 11 5 6 6 9 9 19 21 14 12 18 15 13 4
7 5 5 4 7 8 6 7 6 10 12 14 11 13 15 18 18 18 18 15 9 9 12 9 7 16 27 27 22 8 13 9 3 12 13 14 18 18 17 23 18 15 16 21 22
8 8 5 3 5 9 12 13 16 6 9 11 12 16 13 17 12 10 16 12 14 5 5 4 2 10 17 7 8 21 21 18 19 17 17 14 16 13 21 19 18 20 22 19 20
7 5 4 7 4 6 13 13 14 11 8 6 11 15 14 14 16 17 21 19 13 11 3 4 11 14 14 22 23 24 24 24 18 9 19 17 24 21 17 19 22 23 21 23 21
5 6 5 7 10 13 11 14 14 14 11 12 14 17 18 18 18 19 18 26 22 14 4 3 9 16 18 24 26 27 28 25 18 20 12 9 23 19 19 23 25 26 23 24 21
7 6 7 13 10 12 11 12 14 14 16 18 13 16 14 17 18 26 24 19 20 15 8 6 12 15 25 24 27 29 23 16 19 19 17 18 22 19 21 20 22 25 27 24 24
8 8 7 8 11 13 10 15 17 17 11 13 19 18 19 20 18 20 21 23 23 21 20 18 16 17 20 18 23 18 4 9 10 12 9 12 24 18 20 26 28 27 25 25 26
Wind_Direction
3 360 356 352 347 345 340 333 328 326 323 317 316 324 328 326 305 223 45 343 311 311 315 280 275 313 253 263 247 283 264 258 278 343 342 337 356 16 6 315 296 283 274 286 297
1 358 351 346 342 339 337 332 326 322 319 313 314 328 330 331 292 66 71 315 304 303 309 356 350 316 268 272 232 279 289 283 7 346 329 326 327 328 318 300 287 284 277 269 265
356 355 348 341 337 335 332 330 323 317 311 311 315 325 324 317 263 86 159 294 294 300 298 310 260 280 296 243 345 323 306 311 334 335 326 314 307 306 299 283 281 283 287 288 293
355 353 347 341 336 326 324 324 317 311 308 311 316 323 322 275 38 95 154 263 277 287 285 338 327 346 303 282 322 285 292 303 291 304 292 286 289 287 284 284 292 289 286 283 285
353 354 349 344 336 327 323 316 313 306 303 309 314 326 307 208 73 130 194 239 258 281 345 334 334 341 330 317 308 292 301 284 299 299 291 278 277 280 281 288 281 282 282 278 271
354 355 349 344 337 326 317 309 305 300 298 302 307 318 254 227 93 149 232 272 274 323 331 313 338 333 291 294 310 294 308 300 288 274 261 256 264 281 282 279 279 277 267 262 269
356 353 349 340 335 326 316 308 301 296 293 288 293 285 270 48 316 298 253 277 297 306 309 321 329 311 308 300 297 313 289 274 265 259 268 257 254 255 254 252 279 278 260 262 262
355 351 343 339 334 328 318 307 298 288 287 278 286 280 358 44 320 259 331 325 357 295 275 299 321 307 285 278 278 272 265 270 297 334 328 325 299 296 301 296 290 277 272 270 239
351 346 339 336 334 330 322 305 286 287 269 280 265 215 143 146 244 344 319 331 309 307 313 271 256 277 275 263 271 274 324 322 312 322 318 308 295 294 295 289 282 276 274 269 254
344 342 337 332 332 327 321 290 309 294 235 255 259 267 189 348 357 326 266 311 300 298 291 262 223 264 267 281 318 325 310 305 300 308 302 292 289 294 300 298 294 289 282 274 261
344 340 336 330 332 330 316 233 218 207 236 264 297 286 182 345 280 243 260 303 290 302 294 322 289 271 297 341 319 308 297 292 290 296 307 302 303 301 301 286 277 270 270 268 270
342 340 334 328 325 321 267 274 23 314 293 239 260 263 230 275 276 311 128 297 321 307 306 288 297 314 320 319 295 286 287 292 305 317 316 308 296 288 278 272 275 280 265 256 248
339 336 332 325 320 289 259 6 316 309 277 249 216 241 258 238 278 299 316 304 311 304 316 310 303 296 308 283 298 299 301 319 314 312 297 294 285 295 298 293 301 313 304 255 266
336 332 331 323 297 306 286 344 319 26 271 155 212 230 231 245 276 186 258 342 294 302 306 300 289 310 302 302 300 299 328 307 300 300 293 297 292 282 318 330 278 271 284 304 251
332 328 323 329 306 344 341 347 339 243 271 155 120 108 265 245 271 314 126 249 284 302 299 290 302 289 288 288 311 312 304 294 299 296 297 289 294 336 332 328 314 285 251 276 318
330 326 327 214 226 315 339 341 256 235 213 198 173 247 260 296 313 339 293 287 290 287 280 282 294 308 290 335 306 279 291 305 309 303 293 296 31 292 292 213 254 248 247 294 348
331 323 309 311 314 340 333 279 251 256 106 17 344 322 316 300 291 330 314 287 297 308 305 314 301 287 348 341 324 325 303 310 293 306 284 326 200 234 356 346 348 345 345 329 314
328 319 223 265 309 338 305 268 260 319 7 351 333 317 287 316 323 283 295 303 315 329 325 301 316 335 351 326 306 295 299 301 297 301 299 306 272 34 7 337 334 347 345 344 298
315 238 238 202 331 318 283 255 0 355 345 333 316 304 328 329 337 324 309 316 340 349 310 322 285 316 305 298 313 312 315 339 263 256 278 280 284 39 325 278 333 11 340 322 355
317 277 246 24 334 269 256 255 334 2 354 332 307 302 327 328 321 324 322 328 333 9 326 307 305 314 307 322 290 293 324 255 221 305 311 303 309 132 265 340 308 294 206 265 340
267 248 86 332 206 247 260 331 358 349 349 331 321 312 314 316 329 319 296 306 7 349 335 320 300 290 304 309 314 317 322 310 360 259 304 314 308 328 320 7 339 332 330 326 2
298 289 76 339 259 234 359 360 311 321 326 304 304 299 320 322 321 307 308 308 30 354 319 42 296 297 304 296 274 221 321 273 243 277 273 282 283 290 317 328 341 326 328 339 331
297 291 117 306 315 350 340 332 302 290 323 319 306 310 330 313 306 286 304 311 334 326 312 32 284 308 310 296 357 318 318 313 295 300 287 284 284 312 329 313 331 320 312 319 315
285 317 17 321 172 349 337 312 328 322 304 313 310 304 289 306 317 303 298 292 296 311 137 222 268 263 262 285 298 301 298 293 287 274 289 276 296 293 304 329 333 325 319 312 307
327 24 21 309 332 319 309 302 299 313 333 328 314 304 311 308 309 301 305 313 304 308 292 200 261 271 266 284 290 292 291 293 314 296 299 287 291 312 324 330 324 307 305 302 290
351 346 336 292 303 294 286 305 330 334 331 315 316 322 317 307 302 300 305 300 303 302 288 183 265 281 280 283 285 291 304 331 311 304 316 315 300 312 345 338 317 302 299 301 298
10 342 290 288 294 311 329 338 314 315 311 314 326 315 307 303 314 309 298 287 273 277 273 270 274 281 279 294 303 297 352 265 317 317 319 296 302 348 321 313 306 303 298 286 279